Flag for U.S.A. Weather past 2 weeks in Pasadena, Texas, U.S.A.

Now
50 °F

Passing clouds.


Feels Like: 48 °F
Forecast: 43 / 66 °F
Wind: 6 mph from Southwest

Location: Houston / Ellington

Current Time: Jan 24, 2015 at 10:58:00 PM

Latest Report: Jan 24, 2015 at 9:50 PM


Visibility: 10 mi

Pressure: 30.11 "Hg

Humidity: 67%

Dew point: 39 °F

Location of PasadenaLocation

Historic Weather in Pasadena — Graph

°F

Pasadena temperature yesterday

Maximum temperature yesterday: 46 °F (at 12:50 AM)
Minimum temperature yesterday: 41 °F (at 8:50 PM)
Average temperature yesterday: 43 °F

Past Weeks' High & Low Weather Summary

 TemperatureHumidityPressure
High72 °F (Jan 19, 12:50 PM)100% (Jan 11, 4:50 AM)30.52 "Hg (Jan 11, 4:50 AM)
Low37 °F (Jan 9, 8:50 PM)30% (Jan 18, 3:50 PM)29.92 "Hg (Jan 20, 3:50 PM)
Average50 °F80%30.21 "Hg
* Reported Jan 9 8:50 PM — Jan 24 8:50 PM, Pasadena, Weather by CustomWeather, © 2014

Note: Actual official high and low records may vary slightly from our data, if they occured in-between our weather recording intervals... More about our weather records

Advertising

Pasadena weather history for previous 24 hours

 ConditionsComfort  
Time TempWeatherWind HumidityBarometerVisibility
8:50 PM
Jan 24
52 °FPassing clouds.5 mph62%30.12 "Hg10 mi
7:50 PM54 °FPassing clouds.6 mph63%30.12 "Hg10 mi
6:50 PM55 °FPassing clouds.5 mph59%30.14 "Hg10 mi
5:50 PM59 °FScattered clouds.6 mph48%30.12 "Hg10 mi
4:50 PM61 °FScattered clouds.9 mph45%30.14 "Hg10 mi
3:50 PM61 °FScattered clouds.10 mph45%30.14 "Hg10 mi
2:50 PM61 °FScattered clouds.12 mph45%30.14 "Hg10 mi
1:50 PM59 °FScattered clouds.10 mph48%30.16 "Hg10 mi
12:50 PM61 °FScattered clouds.10 mph45%30.20 "Hg10 mi
11:50 AM61 °FScattered clouds.6 mph45%30.24 "Hg10 mi
10:50 AM52 °FScattered clouds.8 mph62%30.28 "Hg10 mi
9:50 AM46 °FScattered clouds.7 mph76%30.28 "Hg10 mi
8:50 AM43 °FScattered clouds.6 mph87%30.28 "Hg10 mi
7:50 AM39 °FScattered clouds.5 mph93%30.26 "Hg10 mi
5:50 AM37 °FClear.3 mph100%30.24 "Hg10 mi
3:50 AM39 °FClear.3 mph100%30.25 "Hg10 mi
2:50 AM39 °FClear.6 mph100%30.25 "Hg10 mi
1:50 AM39 °FClear.8 mph100%30.26 "Hg10 mi
12:50 AM39 °FClear.7 mph100%30.26 "Hg10 mi
11:50 PM
Jan 23
41 °FPassing clouds.9 mph100%30.26 "Hg10 mi
10:50 PM41 °FPassing clouds.8 mph93%30.27 "Hg10 mi
Weather by CustomWeather, © 2014

See weather overviewHow to use our weather pages